Regional Weather Roundup
Issued by NWS

Home | Current Version | Previous Version | Graphics & Text | Print | Product List | Glossary On
Versions: 1 2 3 4 5 6 7 8 9 10 11 12 13 14 15 16 17 18 19 20 21 22 23 24 25 26 27 28 29 30 31 32 33 34 35 36 37 38 39 40 41 42 43 44 45 46 47 48 49 50
000
ASUS45 KCYS 241010
RWRWY

WYOMING REGIONAL WEATHER ROUNDUP
NATIONAL WEATHER SERVICE CHEYENNE WY
400 AM MDT SUN MAY 24 2015

NOTE:  "FAIR" INDICATES FEW OR NO CLOUDS BELOW 12,000 FEET
WITH NO SIGNIFICANT WEATHER AND/OR OBSTRUCTIONS TO VISIBILITY.

WYZ001-241100-
YELLOWSTONE NATIONAL PARK

CITY           SKY/WX    TMP DP  RH WIND       PRES   REMARKS
LK YELLOWSTONE   N/A     35  32  88 CALM      30.08S
W YELLOWSTONE  NOT AVBL

$$
WYZ002>013-054>058-071-098>099-241100-
NORTHERN WYOMING

CITY           SKY/WX    TMP DP  RH WIND       PRES   REMARKS
JACKSON        FAIR      37  36  93 N8        30.00S WCI  31
CODY           CLOUDY    46  41  81 N8        30.03S
GREYBULL       FAIR      50  45  83 NW15      29.95F
WORLAND        CLOUDY    50  47  89 N10       29.96S
SHERIDAN       CLOUDY    49  47  93 N8        30.01F
BUFFALO        FOG       47  46  97 N13G24    30.01F VSB 1/4
GILLETTE       LGT RAIN  49  48  97 N7        29.97F
HULETT         RAIN      50  48  93 NE7       30.00F
NEWCASTLE      LGT RAIN  50  50 100 CALM      29.95F

$$
WYZ014>020-022>026-101>103-241100-
CENTRAL WYOMING

CITY           SKY/WX    TMP DP  RH WIND       PRES   REMARKS
BIG PINEY      FAIR      37  35  92 NW7       29.98F WCI  32
PINEDALE       FAIR      36  36 100 NW5       30.00S WCI  32
DUBOIS         FAIR      36  34  93 CALM      30.00F
LANDER         LGT RAIN  46  43  89 NW6       29.96F
RIVERTON       LGT RAIN  46  43  89 N14       29.97F
CASPER         LGT RAIN  45  42  89 E6        29.93F
DOUGLAS        LGT RAIN  46  45  96 NW6       29.92F

$$
WYZ021-027>030-104>119-241100-
SOUTHERN WYOMING

CITY           SKY/WX    TMP DP  RH WIND       PRES   REMARKS
EVANSTON       CLOUDY    38  37  97 SW6       30.01S WCI  33
KEMMERER       FAIR      36  34  93 N8        30.01S WCI  29
FORT BRIDGER   CLOUDY    43  43 100 W10       30.03S
ROCK SPRINGS   LGT RAIN  41  40  96 SW3       29.98F
DIXON          LGT RAIN  43  39  86 CALM      30.00S
RAWLINS        LGT RAIN  33  32  96 CALM      29.96F
SARATOGA       LGT RAIN  36  34  93 N3        29.98F
LARAMIE        CLOUDY    37  32  82 NE6       29.95F WCI  32
CHEYENNE       MOCLDY    39  37  92 CALM      29.92F FOG
TORRINGTON     CLOUDY    50  50 100 E8        29.89F
PINE BLUFFS    CLOUDY    45  45 100 S6        29.92S

$$



USA.gov is the U.S. government's official web portal to all federal, state and local government web resources and services.